P/2003 HT15 (LINEAR)                                                  

Epoch 2003 May 1.0 TT = JDT 2452760.5  

T 2003 Apr. 17.72851 TT                                 Nakano

q   2.6714685            (2000.0)            P               Q

n   0.09973984     Peri.  124.05188     -0.80869477     +0.36756683

a   4.6049361      Node    81.47257     -0.56127676     -0.71579238

e   0.4198685      Incl.   27.67012     +0.17601470     -0.59374733

P   9.88 (+/- 0.04 day)

From 38 observations 2003 Jan. 27-July 10, mean residual 0".61.

Residuals in seconds of arc 

2003/                     030426 704  0.2+  0.0     030429 704  0.2+  0.4+  

030127 704 (1.3+  2.8+)   030426 704  0.8-  0.5-    030429 704  0.4+  0.2-  

030127 704  0.7+  0.4-    030426 704  0.6-  0.4-    030429 704  0.2-  0.4-  

030127 704  0.5+  1.5+    030427 704  0.6-  0.2+    030601 A35  0.1+  0.5-  

030127 704  0.4-  0.2-    030427 704  0.8+  0.5+    030601 A35  0.5+  0.4+  

030208 608  0.1+  0.0     030427 704  0.9-  0.6+    030627 J95 (2.2+  0.5+) 

030208 608  0.1+  0.4-    030427 704  0.1+  0.2+    030627 J95  0.7-  1.0+  

030208 608  0.2-  1.2-    030427 704  0.4+  0.7+    030702 H41  1.6+  0.2-  

030424 704  0.5+  0.0     030428 704  0.2+  0.4-    030702 H41  1.2-  0.8-  

030424 704  0.0   0.4+    030428 704  0.1-  0.4+    030704 H41 (2.0+  2.7+) 

030424 704  0.0   0.8-    030428 704  0.1+  0.2-    030704 H41 (0.5+  3.6+) 

030424 704  0.4-  0.9+    030428 704  0.0   0.3-    030710 204  1.7+  0.4-  

030424 704  1.1-  0.3+    030428 704  0.6-  1.2-    030710 204  0.8-  0.0   

030426 704  0.5+  0.4+    030429 704  0.4+  0.1-    030710 204 (1.3-  3.7+) 

030426 704  0.6-  0.3+    030429 704  0.6+  0.0                             





NAKANO

         **** Don't distribute anyone except personal use only ****

                (C) Copyright 2003 OAA/ComputingSection

write mail from CFAD0::NAKANO on 2003-08-14 04:29:34(JST).

 



◎P/2003 HT15の軌道と予報位置です



    P/2003 HT15 (LINEAR)                                                  

Epoch 2003 May 1.0 TT = JDT 2452760.5  

T 2003 Apr. 17.64733 TT                                 Nakano

q   2.6714428            (2000.0)            P               Q

n   0.09974522     Peri.  124.02860     -0.80883549     +0.36726678

a   4.6047704      Node    81.47422     -0.56100340     -0.71601328

e   0.4198532      Incl.   27.66948     +0.17623943     -0.59366665

P   9.88 (+/- 0.04 day)

From 37 observations 2003 Jan. 27-July 4, mean residual 0".62.



Date/        TT  R.A.(2000) Decl.     Delta   r     Daily motion  Mag.  Moon Age

              h    h  m       。  ,                      ,  / PA 。  m1      。

2003 July 10 12  14 10.88  +05 17.4   2.359  2.731    17.4 / 156  18.7   38  .86

          11 12  14 11.35  +05 01.5   2.372  2.733    17.5 / 155  18.7   52  .93

          12 12  14 11.83  +04 45.6   2.385  2.734    17.6 / 155  18.8   65  .98

          13 12  14 12.34  +04 29.7   2.398  2.736    17.7 / 154  18.8   79 1.00

          14 12  14 12.86  +04 13.8   2.411  2.737    17.8 / 153  18.8   92  .99

          15 12  14 13.40  +03 58.0   2.424  2.739    17.9 / 152  18.8  106  .96

          16 12  14 13.96  +03 42.2   2.438  2.740    18.0 / 151  18.8  118  .91

          17 12  14 14.53  +03 26.4   2.451  2.742    18.1 / 151  18.8  131  .84

          18 12  14 15.12  +03 10.6   2.464  2.743    18.2 / 150  18.8  143  .76

          19 12  14 15.73  +02 54.9   2.477  2.745    18.3 / 149  18.9  154  .67

          20 12  14 16.36  +02 39.2   2.491  2.746    18.4 / 149  18.9  163  .58

          21 12  14 17.00  +02 23.5   2.504  2.748    18.5 / 148  18.9  167  .48

          22 12  14 17.65  +02 07.9   2.518  2.749    18.6 / 147  18.9  163  .39

          23 12  14 18.33  +01 52.3   2.531  2.751    18.7 / 146  18.9  153  .30

          24 12  14 19.01  +01 36.7   2.545  2.753    18.8 / 146  18.9  143  .21

          25 12  14 19.72  +01 21.2   2.559  2.754    18.9 / 145  18.9  132  .14

          26 12  14 20.44  +01 05.7   2.572  2.756    19.0 / 145  19.0  120  .08

          27 12  14 21.17  +00 50.3   2.586  2.757    19.1 / 144  19.0  108  .04

          28 12  14 21.92  +00 34.9   2.600  2.759    19.1 / 143  19.0   96  .01

          29 12  14 22.68  +00 19.6   2.614  2.761    19.2 / 143  19.0   84  .00

          30 12  14 23.46  +00 04.3   2.628  2.762    19.3 / 142  19.0   71  .02

          31 12  14 24.25  -00 11.0   2.641  2.764    19.4 / 141  19.0   58  .06

     Aug.  1 12  14 25.06  -00 26.2   2.655  2.766    19.5 / 141  19.0   45  .12

           2 12  14 25.88  -00 41.3   2.669  2.768    19.6 / 140  19.1   32  .20

           3 12  14 26.71  -00 56.4   2.683  2.769    19.7 / 140  19.1   20  .30

           4 12  14 27.56  -01 11.5   2.697  2.771    19.8 / 139  19.1   11  .41

           5 12  14 28.42  -01 26.5   2.711  2.773    19.9 / 139  19.1   15  .52

           6 12  14 29.30  -01 41.4   2.725  2.775    20.0 / 138  19.1   27  .64

           7 12  14 30.19  -01 56.3   2.739  2.777    20.1 / 138  19.1   40  .74

           8 12  14 31.09  -02 11.2   2.753  2.778    20.1 / 137  19.1   53  .83

           9 12  14 32.00  -02 26.0   2.767  2.780    20.2 / 137  19.2   67  .91

          10 12  14 32.92  -02 40.7   2.781  2.782    20.3 / 136  19.2   80  .96

NAKANO

         **** Don't distribute anyone except personal use only ****

                (C) Copyright 2003 OAA/ComputingSection

write mail from CFAD0::NAKANO on 2003-07-10 02:01:25(JST).

 



戻ります。